This is the latest recevied weather packets stored in our database for station/object KB4NWJ. If no packets are shown the sender has not sent any weather packets the latest 10 day(s).
| Time | Temp. | Humidity | Pressure | Rain* | Wind** | Luminosity | Snow |
|---|---|---|---|---|---|---|---|
| 1777506949 | 23.89° C | 85% | 1011.4 hPa | 0 mm | - | 11 W/m² | - |
| 1777506646 | 23.89° C | 85% | 1011.8 hPa | 0 mm | - | 18 W/m² | - |
| 1777506343 | 23.89° C | 85% | 1011.8 hPa | 0 mm | - | 22 W/m² | - |
| 1777506038 | 23.89° C | 85% | 1012 hPa | 0 mm | - | 30 W/m² | - |
| 1777505734 | 23.89° C | 85% | 1012.2 hPa | 0 mm | - | 22 W/m² | - |
| 1777505432 | 23.89° C | 84% | 1011.6 hPa | 0 mm | - | 10 W/m² | - |
| 1777505128 | 23.89° C | 83% | 1011.2 hPa | 0 mm | - | 16 W/m² | - |
| 1777504825 | 24.44° C | 82% | 1011.4 hPa | 0 mm | - | 22 W/m² | - |
| 1777504522 | 24.44° C | 82% | 1011.8 hPa | 0 mm | - | 32 W/m² | - |
| 1777504218 | 24.44° C | 81% | 1011.8 hPa | 0 mm | - | 30 W/m² | - |
| 1777503914 | 24.44° C | 81% | 1011.4 hPa | 0 mm | - | 49 W/m² | - |
| 1777503610 | 24.44° C | 81% | 1011.4 hPa | 0 mm | - | 52 W/m² | - |
| 1777503307 | 25° C | 80% | 1011.4 hPa | 0 mm | - | 40 W/m² | - |
| 1777503003 | 25° C | 79% | 1011.8 hPa | 0 mm | - | 68 W/m² | - |
| 1777502701 | 25° C | 80% | 1011.9 hPa | 0 mm | - | 81 W/m² | - |
| 1777502397 | 25° C | 79% | 1012.4 hPa | 0 mm | - | 59 W/m² | - |
| 1777502094 | 25° C | 79% | 1012.2 hPa | 0 mm | - | 86 W/m² | - |
| 1777501791 | 25° C | 79% | 1012.2 hPa | 0 mm | - | 94 W/m² | - |
| 1777501489 | 25.56° C | 79% | 1012.1 hPa | 0 mm | - | 101 W/m² | - |
| 1777501185 | 25.56° C | 78% | 1011.8 hPa | 0 mm | - | 96 W/m² | - |
| 1777500884 | 25.56° C | 78% | 1012.1 hPa | 0 mm | - | 121 W/m² | - |
| 1777500581 | 26.11° C | 75% | 1011.9 hPa | 0 mm | - | 112 W/m² | - |
| 1777500277 | 26.67° C | 74% | 1011.9 hPa | 0 mm | - | 208 W/m² | - |
| 1777499973 | 25.56° C | 76% | 1012 hPa | 0 mm | - | 286 W/m² | - |
| 1777499670 | 25.56° C | 78% | 1012 hPa | 0 mm | - | 140 W/m² | - |
* Rain latest hour (hover to see other rain measurements)
** Current wind speed in m/s (hover to see current wind gust speed)